STARLINK-31838, 60130

Orbit data source: Space-Track

STARLINK-31838, 60130 is a payload satellite owned by SpaceX/Seattle (US) in LEO that was launched on Mon, 24 Jun 2024 UTC via an FALCON 9 launch vehicle from the Air Force Western Test Range (AFWTR). Payload-class satellites include a variety of spacecraft equipped with specific instruments for various scientific and technological missions. These include communications satellites like Starlink; space stations such as the ISS; scientific satellites like the Hubble; Earth observation satellites from companies like Planet Labs, Umbra, and HawkEye 360; GPS; miniature CubeSats for education and research; and military/defense satellites.

Loading next visibility...
Identifier
60130, 2024-118T
Orbit
LEO
Country
Flag of USUS
Related business
Manufacturer
SpaceX/Seattle
Mission
Operational Commercial Communications
Bus & Motor
STARLINK V2M, Unknown motor
Mass
730 kg wet, ~700 kg dry
Launch date (UTC)
2024-06-24 (1 year ago)
Launch vehicle
FALCON 9
Launch site
Air Force Western Test Range (AFWTR)
Object type
Payload
Rocket body
Debris
Shape & HBR
Box + 2 Pan, 17.7 m
Radar Cross Section
33.884 m², Large (>1 m²)

Expand to show TLE details & history
Last TLE update: 16 hours ago

TLE from 16 hours ago
0 STARLINK-31838
1 60130U 24118T   25293.38555801 -.00001066  00000-0 -23888-4 0  9990
2 60130  53.1608 318.5249 0001203 104.1462 255.9672 15.30188146 74218
Epoch: 2025-10-20T09:15Z
TLE epoch observation values (Epoch: 2025-10-20T09:15:12.212Z)
Latitude
-0.00004°
Longitude
150.63536°
Altitude
476.35 km
Speed
7.629 km/s
True Right ascension
21h 14m 05s
True Declination
0° 00' 00"
Sunlit
Object was in full shadow at epoch
Visualization orbit readout
Latitude
Unknown
Longitude
Unknown
Altitude
Unknown
Speed
Unknown
Apparent Right ascension
Unknown
Apparent Declination
Unknown
Sunlit
N/A
Visualization observer readout
Local Sidereal Time
19:44:33
Azimuth
Unknown
Elevation
Unknown
Doppler factor
Unknown
Orbital elements
Apogee altitude
476.331 km
Perigee altitude
474.682 km
Semi-major axis
6,853.644 km
Eccentricity
0.00012
Inclination
53.1608°
RAAN
318.5249°
Arg. of periapsis
104.1462°
True anomaly
255.95383°
Mean anomaly
255.9672°
Eccentric anomaly
255.96051°
Mean motion
3.82526 °/min
Orbital period
94.11 mins
BSTAR
-0.000023888
Loading maneuver chart data...
Computing Atmospheric mass density...
Loading historical data...
Loading historical data...
Loading historical data...
Loading historical data...
Loading historical data...
Loading historical data...
Loading historical data...

Documentation

Showing up to 5 results
|